G4GJR Weather Reports


time (UTC)temp
F
wind
direction
speed
knots
gust
knots
rain 1hr
in
rain 24hr
in
rain mn
in
humidity
%
barometer
mb
20260508054504 46 151 0.0 2.6 0.00 0.00 0.00 92 1016.9
20260508053004 46 149 0.9 1.7 0.00 0.00 0.00 92 1016.9
20260508050004 43 125 0.0 0.0 0.00 0.00 0.00 92 1016.8
20260508044504 43 125 0.0 0.0 0.00 0.00 0.00 91 1016.8
20260508043004 44 125 0.0 0.9 0.00 0.00 0.00 91 1016.7
20260508041504 45 125 0.0 0.9 0.00 0.00 0.00 91 1016.6
20260508040004 45 113 0.0 0.9 0.00 0.00 0.00 91 1016.6
20260508034503 45 113 0.0 0.9 0.00 0.00 0.00 90 1016.7
20260508033004 45 113 0.0 0.9 0.00 0.00 0.00 90 1016.7
20260508031504 46 113 0.0 0.9 0.00 0.00 0.00 90 1016.8
20260508030004 46 113 0.0 0.0 0.00 0.00 0.00 89 1016.9
20260508023004 47 113 0.0 1.7 0.00 0.00 0.00 88 1016.8
20260508021504 48 124 0.0 1.7 0.00 0.00 0.00 88 1016.8
20260508020004 48 155 0.9 1.7 0.00 0.00 0.00 88 1016.8
20260508014504 49 144 0.9 2.6 0.00 0.00 0.00 87 1016.7
20260508013004 49 156 1.7 2.6 0.00 0.00 0.00 87 1016.7
20260508011503 49 189 1.7 4.3 0.00 0.00 0.00 86 1016.7
20260508010004 50 162 1.7 4.3 0.00 0.00 0.00 86 1016.6
20260508004503 50 183 1.7 4.3 0.00 0.00 0.00 86 1016.7
20260508003004 50 126 0.9 1.7 0.00 0.00 0.00 85 1016.7
20260508001504 51 137 0.9 1.7 0.00 0.00 0.00 84 1016.7
20260507234505 51 159 0.9 2.6 0.00 0.00 0.00 84 1016.8
20260507233004 51 169 0.9 2.6 0.00 0.00 0.00 83 1016.8
20260507231503 51 146 0.9 4.3 0.00 0.00 0.00 82 1016.9
20260507230005 52 147 1.7 4.3 0.00 0.00 0.00 82 1016.9
20260507224504 52 175 1.7 5.2 0.00 0.00 0.00 82 1017.1
20260507223004 52 183 1.7 4.3 0.00 0.00 0.00 81 1017.1
20260507221504 52 186 1.7 4.3 0.00 0.00 0.00 80 1017.1
20260507220004 52 158 1.7 6.1 0.00 0.00 0.00 80 1017.2
20260507214503 52 163 2.6 5.2 0.00 0.00 0.00 80 1017.1
20260507211504 51 161 1.7 6.1 0.00 0.00 0.00 78 1017.0
20260507210004 51 170 2.6 5.2 0.00 0.00 0.00 77 1016.9
20260507204504 51 148 0.9 1.7 0.00 0.00 0.00 77 1016.8
20260507203004 51 177 0.9 2.6 0.00 0.00 0.00 76 1016.7
20260507201503 52 165 0.9 2.6 0.00 0.00 0.00 75 1016.5
20260507200003 52 122 0.9 4.3 0.00 0.00 0.00 74 1016.3
20260507193004 54 135 0.9 2.6 0.00 0.00 0.00 71 1016.1
20260507191503 55 181 0.9 5.2 0.00 0.00 0.00 70 1016.0
20260507190005 55 140 1.7 6.1 0.00 0.00 0.00 68 1015.9
20260507184504 56 150 1.7 6.1 0.00 0.00 0.00 66 1015.9
20260507183004 58 156 2.6 7.8 0.00 0.00 0.00 62 1015.7
20260507181504 59 161 3.5 10.4 0.00 0.00 0.00 61 1015.6
20260507180004 58 177 1.7 6.1 0.00 0.00 0.00 64 1015.5
20260507174504 58 145 1.7 7.0 0.00 0.00 0.00 64 1015.5
20260507173004 58 136 2.6 8.7 0.00 0.00 0.00 63 1015.4
20260507171503 59 158 1.7 7.0 0.00 0.00 0.00 58 1015.5
20260507170004 60 133 2.6 6.1 0.00 0.00 0.00 56 1015.4
20260507164504 60 168 2.6 7.0 0.00 0.00 0.00 56 1015.5
20260507161504 62 158 2.6 6.1 0.00 0.00 0.00 54 1015.5
20260507160003 62 163 1.7 7.8 0.00 0.00 0.00 51 1015.6
20260507154504 62 104 0.9 7.0 0.00 0.00 0.00 56 1015.6
20260507153004 62 146 1.7 7.8 0.00 0.00 0.00 55 1015.7
20260507144503 61 148 2.6 7.0 0.00 0.00 0.00 56 1015.9
20260507143004 60 183 2.6 7.8 0.00 0.00 0.00 57 1016.0
20260507141503 61 91 1.7 4.3 0.00 0.00 0.00 56 1016.1
20260507140004 61 138 1.7 7.0 0.00 0.00 0.00 58 1016.2
20260507134504 59 57 1.7 4.3 0.00 0.00 0.00 59 1016.2
20260507133004 60 189 1.7 5.2 0.00 0.00 0.00 59 1016.3
20260507131503 59 143 1.7 5.2 0.00 0.00 0.00 59 1016.4
20260507130004 58 64 0.0 1.7 0.00 0.00 0.00 61 1016.4
20260507124503 58 151 0.9 5.2 0.00 0.00 0.00 60 1016.5
20260507123004 59 123 1.7 6.1 0.00 0.00 0.00 60 1016.5
20260507121504 58 82 1.7 4.3 0.00 0.00 0.00 60 1016.6
20260507120005 59 91 1.7 6.1 0.00 0.00 0.00 63 1016.6
20260507114503 58 47 1.7 5.2 0.00 0.00 0.00 64 1016.6
20260507113004 57 155 0.9 4.3 0.00 0.00 0.00 63 1016.8
20260507111504 56 181 1.7 5.2 0.00 0.00 0.00 64 1016.8
20260507110004 55 132 2.6 6.1 0.00 0.00 0.00 66 1016.9
20260507104505 53 166 1.7 5.2 0.00 0.00 0.00 70 1017.0
20260507103003 53 168 0.9 4.3 0.00 0.00 0.00 71 1017.0
20260507101503 53 231 0.0 1.7 0.00 0.00 0.00 72 1017.1
20260507100005 53 265 1.7 7.0 0.00 0.00 0.00 71 1017.1
20260507093004 56 157 2.6 5.2 0.00 0.00 0.00 69 1017.0
20260507091504 55 153 2.6 6.1 0.00 0.00 0.00 71 1017.1
20260507084503 54 157 3.5 6.1 0.00 0.00 0.00 76 1017.1
20260507081504 51 174 1.7 5.2 0.00 0.00 0.00 82 1017.1
20260507080004 50 172 1.7 5.2 0.00 0.00 0.00 82 1017.1
20260507074503 51 176 1.7 4.3 0.00 0.00 0.00 82 1017.0
20260507073004 50 134 0.9 4.3 0.00 0.00 0.00 84 1016.9
20260507071504 49 107 0.0 1.7 0.00 0.00 0.00 88 1016.9
20260507070009 48 152 0.9 0.9 0.00 0.00 0.00 89 1016.8
20260507064504 47 81 0.9 1.7 0.00 0.00 0.00 91 1016.8
20260507063004 46 75 0.0 0.9 0.00 0.00 0.00 92 1016.6
20260507061503 45 29 0.9 1.7 0.00 0.00 0.00 92 1016.5
20260507060004 44 55 0.0 0.9 0.00 0.00 0.00 92 1016.4